Location: Newark
(43.6583°N, 1.6617°E)
Time: 19:45:42
(UTC+00:00)

Courier 1B - All Passes

Search period start: 25 August 2019 00:00
Search period end: 04 September 2019 00:00
Orbit: 962 x 1209 km, 28.3° (Epoch: 24 August)

Date Brightness Start Highest point End Pass type
(mag) Time Alt. Az. Time Alt. Az. Time Alt. Az.
25 Aug - 16:32:59 10° SSW 16:37:20 18° SSE 16:41:34 10° SE daylight
25 Aug - 18:25:31 10° SW 18:30:20 21° S 18:35:01 10° SE daylight
25 Aug - 20:19:50 10° SW 20:23:13 15° SSW 20:26:33 10° SSE visible
26 Aug - 15:39:50 10° SSW 15:43:50 16° SSE 15:47:42 10° SE daylight
26 Aug - 17:31:52 10° SW 17:36:50 21° S 17:41:37 10° SE daylight
26 Aug - 19:25:41 10° SW 19:29:47 17° SSW 19:33:47 10° SSE visible
27 Aug - 14:46:59 10° S 14:50:18 14° SSE 14:53:32 10° SE daylight
27 Aug - 16:38:17 10° SW 16:43:18 21° S 16:48:08 10° SE daylight
27 Aug - 18:31:42 10° SW 18:36:19 19° S 18:40:46 10° SSE daylight
28 Aug - 13:54:46 10° S 13:56:46 11° SSE 13:58:45 10° SE daylight
28 Aug - 15:44:47 10° SW 15:49:46 20° S 15:54:33 10° SE daylight
28 Aug - 17:37:50 10° SW 17:42:48 21° S 17:47:36 10° SE daylight
28 Aug - 19:32:51 10° SW 19:35:40 13° SSW 19:38:27 10° S visible
29 Aug - 14:51:25 10° SSW 14:56:12 19° SSE 15:00:49 10° SE daylight
29 Aug - 16:44:02 10° SW 16:49:16 22° S 16:54:19 10° SE daylight
29 Aug - 18:38:20 10° SW 18:42:13 16° SSW 18:46:01 10° SSE daylight
30 Aug - 13:58:14 10° SSW 14:02:37 17° SSE 14:06:55 10° SE daylight
30 Aug - 15:50:18 10° SW 15:55:43 23° S 16:00:54 10° SE daylight
30 Aug - 17:44:09 10° SW 17:48:45 19° SSW 17:53:11 10° SSE daylight
31 Aug - 13:05:21 10° S 13:09:03 14° SSE 13:12:41 10° SE daylight
31 Aug - 14:56:40 10° SW 15:02:08 22° S 15:07:23 10° SE daylight
31 Aug - 16:50:07 10° SW 16:55:13 21° S 17:00:08 10° SE daylight
31 Aug - 18:46:06 10° SW 18:48:04 11° SSW 18:50:01 10° S daylight
01 Sep - 12:13:05 10° S 12:15:29 12° SSE 12:17:51 10° SE daylight
01 Sep - 14:03:09 10° SW 14:08:32 21° S 14:13:43 10° SE daylight
01 Sep - 15:56:11 10° SW 16:01:40 23° S 16:06:55 10° SE daylight
01 Sep - 17:51:01 10° SW 17:54:37 15° SSW 17:58:07 10° S daylight
02 Sep - 13:09:46 10° SSW 13:14:54 19° SSE 13:19:54 10° SE daylight
02 Sep - 15:02:22 10° SW 15:08:04 24° S 15:13:33 10° SE daylight
02 Sep - 16:56:35 10° SW 17:01:07 18° SSW 17:05:30 10° SSE daylight
03 Sep - 12:16:37 10° SSW 12:21:17 17° SSE 12:25:52 10° SE daylight
03 Sep - 14:08:37 10° SW 14:14:27 24° S 14:20:04 10° SE daylight
03 Sep - 16:02:24 10° WSW 16:07:35 20° SSW 16:12:33 10° SSE daylight
